Regional Weather Roundup
Issued by NWS

Home | Current Version | Previous Version | Graphics & Text | Print | Product List | Glossary On
Versions: 1 2 3 4 5 6 7 8 9 10 11 12 13 14 15 16 17 18 19 20 21 22 23 24 25 26 27 28 29 30 31 32 33 34 35 36 37 38 39 40 41 42 43 44 45 46 47 48 49 50
000
ASUS43 KLSX 271159
RWRMO

WEATHER SUMMARY FOR MISSOURI
NATIONAL WEATHER SERVICE SPRINGFIELD MO
700 AM CDT MON MAR 27 2017

NOTE: "FAIR" INDICATES FEW OR NO CLOUDS BELOW 12,000 FEET WITH NO
       SIGNIFICANT WEATHER AND/OR OBSTRUCTIONS TO VISIBILITY.
       CURRENT SKY AND/OR WEATHER CONDITIONS ARE NOT AVAILABLE FOR
       CHILLICOTHE AND FARMINGTON.

MOZ001>031-035>038-043-044-053-054-271300-
...NORTHERN AND WESTERN MISSOURI...

CITY           SKY/WX    TMP DP  RH WIND       PRES   REMARKS
KANSAS CTY INT LGT RAIN  46  45  96 N10       29.87R
6HR MIN TEMP:  45; 6HR MAX TEMP:  46; 6HR PCP:  0.30;

KANSAS C DTWN  LGT RAIN  48  46  93 N6        29.86R
6HR MIN TEMP:  47; 6HR MAX TEMP:  49; 6HR PCP:  0.31;

LEE`S SUMMIT   LGT RAIN  46  46 100 N10       29.85R
6HR MIN TEMP:  46; 6HR MAX TEMP:  49; 6HR PCP:  0.26;

ST JOSEPH      RAIN      46  46 100 N7        29.90R FOG
6HR MIN TEMP:  46; 6HR MAX TEMP:  46; 6HR PCP:  0.36;

CHILLICOTHE      N/A     47  45  93 NE6       29.89R
6HR MIN TEMP:  47; 6HR MAX TEMP:  49; 6HR PCP:  0.05;

KIRKSVILLE     LGT RAIN  46  45  96 NE9       29.89S
6HR MIN TEMP:  45; 6HR MAX TEMP:  47; 6HR PCP: TRACE;


$$
MOZ066>068-077>081-088>096-101>105-271300-
...SOUTHWEST MISSOURI...

CITY           SKY/WX    TMP DP  RH WIND       PRES   REMARKS
SPRINGFIELD    CLOUDY    56  54  93 S12       29.77S
6HR MIN TEMP:  55; 6HR MAX TEMP:  58; 6HR PCP:  0.38;

JOPLIN         LGT RAIN  55  55 100 NW10      29.79R
6HR MIN TEMP:  54; 6HR MAX TEMP:  57; 6HR PCP:  0.40;


$$
MOZ032>034-039>042-045>050-055>058-069>072-271300-
...CENTRAL MISSOURI...

CITY           SKY/WX    TMP DP  RH WIND       PRES   REMARKS
COLUMBIA       LGT RAIN  50  49  96 E13       29.82F FOG
6HR MIN TEMP:  49; 6HR MAX TEMP:  50; 6HR PCP:  0.18;

JEFFERSON CITY RAIN      54  50  86 SE8       29.82S FOG
6HR MIN TEMP:  53; 6HR MAX TEMP:  55; 6HR PCP:  0.15;

ROLLA          CLOUDY    51  51 100 NE6       29.81R
6HR MIN TEMP:  51; 6HR MAX TEMP:  53; 6HR PCP:  0.09;

SEDALIA        LGT RAIN  50  48  93 NE10      29.82R
6HR MIN TEMP:  50; 6HR MAX TEMP:  51; 6HR PCP: TRACE;

WARRENSBURG    DRIZZLE   46  45  93 N5        29.82R
OSAGE BEACH    LGT RAIN N/A N/A N/A E5        29.79F

$$
MOZ051-052-059>065-271300-
...EAST CENTRAL MISSOURI...

CITY           SKY/WX    TMP DP  RH WIND       PRES   REMARKS
ST LOUIS INTL  LGT RAIN  53  49  86 CALM      29.90R
6HR MIN TEMP:  52; 6HR MAX TEMP:  54; 6HR PCP:  0.01;

SPIRIT OF STL  RAIN      51  51 100 NE3       29.87S FOG
6HR MIN TEMP:  49; 6HR MAX TEMP:  51; 6HR PCP:  0.09;

ST CHARLES     LGT RAIN  50  49  96 CALM      29.89R
6HR MIN TEMP:  50; 6HR MAX TEMP:  52; 6HR PCP:  0.02;


$$
MOZ072>076-082>087-097>100-106>115-271300-
...SOUTH CENTRAL AND SOUTHEAST MISSOURI...

CITY           SKY/WX    TMP DP  RH WIND       PRES   REMARKS
CAPE GIRARDEAU CLOUDY    55  52  89 E10       29.84F
6HR MIN TEMP:  48; 6HR MAX TEMP:  57; 6HR PCP:  0.16;

FARMINGTON     CLOUDY    53  52  96 E7        29.81F
6HR MIN TEMP:  49; 6HR MAX TEMP:  55; 6HR PCP:  0.28;

POPLAR BLUFF   CLOUDY    56  55  97 CALM      29.82S
6HR MIN TEMP:  53; 6HR MAX TEMP:  61; 6HR PCP:  0.26;

WEST PLAINS    RAIN      56  54  93 SW3       29.84R FOG
6HR MIN TEMP:  55; 6HR MAX TEMP:  59; 6HR PCP:  0.53;


$$




USA.gov is the U.S. government's official web portal to all federal, state and local government web resources and services.